Location: Madrid
(40.4167°N, 3.7036°W)
Time: 21:44:30
(UTC+00:00)

ISS - Pass Details

Date: 09 July 2025
Orbit: 413 x 417 km, 51.6° (Epoch: 13 July)

Event Time Altitude Azimuth Distance (km) Brightness Sun altitude
Rises 19:54:54 0° 207° (SSW) 2,333 0.0 -2.1°
Reaches altitude 10° 19:57:09 10° 195° (SSW) 1,476 -1.1 -2.5°
Maximum altitude 20:00:01 28° 135° (SE) 817 -2.8 -3.0°
Drops below altitude 10° 20:02:55 10° 74° (ENE) 1,486 -1.3 -3.4°
Sets 20:05:12 0° 62° (ENE) 2,353 -0.2 -3.8°
